Tracking 17938 objects as of 23-February-2017
HD Live streaming from Space Station
objects crossing your sky now

TITAN 3 R/B(2)

Track TITAN 3 R/B(2) now!


NORAD ID: 20669
Int'l Code: 1990-056C
Perigee: 267.7 km
Apogee: 33,117.8 km
Inclination: 24.0 °
Period: 581.0 minutes
Semi major axis: 23063 km
RCS: 6.947 m2 (large)
Launch date: June 23, 1990
Source: United States (US)
Launch site: AIR FORCE EASTERN TEST RANGE (AFETR)

Note: This is a ROCKET BODY
Your satellite tracking list
Your tracking list is empty





NASA's NSSDC Master Catalog

Two Line Element Set (TLE):
1 20669U 90056C   17053.56113581  .00001666  00000-0  46211-3 0  9995
2 20669  24.0113 135.0449 7121594 300.7999   8.2686  2.47861008224563
Source of the keplerian elements: AFSPC